Regional Weather Roundup
Issued by NWS Little Rock, AR

Home | Current Version | Previous Version | Text Only | Print | Product List | Glossary Off
Versions: 1 2 3 4 5 6 7 8 9 10 11 12 13 14 15 16 17 18 19 20 21 22 23 24 25 26 27 28 29 30 31 32 33 34 35 36 37 38 39 40 41 42 43 44 45 46 47 48 49 50

293
ASUS44 KLZK 290205
RWRLZK

WEATHER ROUNDUP FOR ARKANSAS
NATIONAL WEATHER SERVICE LITTLE ROCK AR
900 PM CDT SAT MAY 28 2016

NOTE: "FAIR" INDICATES FEW OR NO CLOUDS BELOW 12,000 FEET WITH NO
SIGNIFICANT WEATHER AND/OR OBSTRUCTIONS TO VISIBILITY.

ARZ001-003-010-029-290300-
NORTHWEST ARKANSAS

CITY           SKY/WX    TMP DP  RH WIND       PRES   REMARKS
FAYETTEVILLE   CLEAR     69  66  90 S3        30.01R
FORT SMITH     CLEAR     75  64  68 E5        29.97R
HARRISON       CLEAR     72  65  78 S7        30.02R
BENTONVILLE    CLEAR     70  63  78 W3        30.02S
ROGERS           N/A     72  64  76 CALM      30.02R
SILOAM SPGS    CLEAR     72  59  64 CALM      30.02R
HIGHFILL       CLEAR     72  67  84 W3        30.01R
SPRINGDALE     CLEAR     75  66  73 SW5       30.03R
$$

ARZ004-005-016-290300-
NORTH CENTRAL ARKANSAS

CITY           SKY/WX    TMP DP  RH WIND       PRES   REMARKS
BATESVILLE     CLEAR     73  66  78 SE6       30.00S
FLIPPIN        CLEAR    N/A N/A N/A S5        29.98R
MTN HOME       CLEAR     73  67  81 S5        29.99R
$$

ARZ040-041-290300-
WEST CENTRAL ARKANSAS

CITY           SKY/WX    TMP DP  RH WIND       PRES   REMARKS
MENA           CLEAR     73  70  88 CALM      30.03S
MOUNT IDA      CLEAR     70  66  87 CALM      30.00S
$$

ARZ009-017-025-026-028-290300-
NORTHEAST ARKANSAS

CITY           SKY/WX    TMP DP  RH WIND       PRES   REMARKS
CORNING          N/A     75  72  88 S6        30.00S
JONESBORO      CLEAR     76  69  79 S6        30.01R
NEWPORT        CLEAR     76  71  84 S7        30.02R
WALNUT RIDGE   CLEAR     75  66  73 S9        30.00S
BLYTHEVILLE    CLOUDY    77  71  82 S6        30.02S
$$

ARZ022-023-033-042-044-290300-
CENTRAL ARKANSAS

CITY           SKY/WX    TMP DP  RH WIND       PRES   REMARKS
LITTLE ROCK    CLEAR     75  67  76 S5        30.00S
N LITTLE ROCK    N/A     75  67  74 S5        29.99R
SEARCY         CLEAR     73  69  87 S3        30.02R
HOT SPRINGS    CLEAR     73  66  78 CALM      30.02R
RUSSELLVILLE   CLEAR     74  67  78 CALM      29.99R
CLINTON        FAIR      72  70  94 CALM      30.01R
$$

ARZ036-290300-
EAST ARKANSAS

CITY           SKY/WX    TMP DP  RH WIND       PRES   REMARKS
WEST MEMPHIS   CLEAR     75  70  84 CALM      30.01S
$$

ARZ050-053-066-070-073-290300-
SOUTHWEST ARKANSAS

CITY           SKY/WX    TMP DP  RH WIND       PRES   REMARKS
ARKADELPHIA    FAIR      71  71 100 CALM      30.01R
CAMDEN         CLEAR     72  68  88 SE5       30.00S
TEXARKANA      PTCLDY    73  70  90 CALM      30.01R
EL DORADO      CLEAR     74  72  93 E5        30.01S
DE QUEEN       PTCLDY    71  68  90 SE5       29.99R
$$

ARZ056-057-069-290300-
SOUTHEAST ARKANSAS

CITY           SKY/WX    TMP DP  RH WIND       PRES   REMARKS
PINE BLUFF     CLEAR     74  69  85 S7        30.01S
STUTTGART      CLEAR     77  66  69 SE5       30.01S
MONTICELLO     CLEAR     74  71  91 CALM      30.03R

$$






USA.gov is the U.S. government's official web portal to all federal, state and local government web resources and services.